WD9EKA Weather Reports


Display with metric or nautical units.
time (UTC)temp
F
wind
direction
speed
MPH
gust
MPH
rain 1hr
in
rain 24hr
in
rain mn
in
humidity
%
barometer
mb
20260503054458 36 243 0.0 0.0 0.00 0.00 0.00 99 1014.5
20260503053938 36 243 0.0 0.0 0.00 0.00 0.00 99 1014.6
20260503053418 36 243 0.0 0.0 0.00 0.00 0.00 99 1014.6
20260503052858 37 243 0.0 0.0 0.00 0.00 0.00 99 1014.4
20260503052338 37 244 0.0 0.0 0.00 0.00 0.00 99 1014.6
20260503051803 36 243 0.0 0.0 0.00 0.00 0.00 99 1014.5
20260503051242 37 243 0.0 0.0 0.00 0.00 0.00 99 1014.4
20260503050722 36 244 0.0 0.0 0.00 0.00 0.00 99 1014.5
20260503050204 37 243 0.0 0.0 0.00 0.00 0.00 99 1014.5
20260503045642 37 244 0.0 0.0 0.00 0.00 0.00 99 1014.5
20260503045122 37 243 0.0 0.0 0.00 0.00 0.00 99 1014.4
20260503044603 37 243 0.0 0.0 0.00 0.00 0.00 99 1014.4
20260503044042 38 243 0.0 0.0 0.00 0.00 0.00 98 1014.3
20260503043433 38 243 0.0 0.0 0.00 0.00 0.00 98 1014.5
20260503042833 38 243 0.0 0.0 0.00 0.00 0.00 98 1014.5
20260503042233 38 243 0.0 0.0 0.00 0.00 0.00 98 1014.6
20260503041633 37 244 0.0 0.0 0.00 0.00 0.00 97 1014.5
20260503041033 38 244 0.0 0.0 0.00 0.00 0.00 97 1014.5
20260503040433 38 243 0.0 0.0 0.00 0.00 0.00 97 1014.4
20260503035833 38 243 0.0 0.0 0.00 0.00 0.00 96 1014.8
20260503035233 38 243 0.0 0.0 0.00 0.00 0.00 96 1014.7
20260503034633 38 243 0.0 0.0 0.00 0.00 0.00 96 1014.7
20260503034033 38 243 0.0 0.0 0.00 0.00 0.00 95 1014.7
20260503033433 38 243 0.0 0.0 0.00 0.00 0.00 95 1014.6
20260503032833 39 243 0.0 0.0 0.00 0.00 0.00 94 1014.6
20260503032233 38 244 0.0 0.0 0.00 0.00 0.00 94 1014.6
20260503031633 38 243 0.0 0.0 0.00 0.00 0.00 94 1014.5
20260503031033 39 243 0.0 0.0 0.00 0.00 0.00 93 1014.7
20260503030433 39 243 0.0 0.0 0.00 0.00 0.00 92 1014.4
20260503025833 39 244 0.0 0.0 0.00 0.00 0.00 92 1014.6
20260503025233 39 244 0.0 0.0 0.00 0.00 0.00 91 1014.5
20260503024633 39 244 0.0 0.0 0.00 0.00 0.00 90 1014.5
20260503024130 40 244 0.0 0.0 0.00 0.00 0.00 90 1014.5
20260503023611 40 244 0.0 0.0 0.00 0.00 0.00 90 1014.5
20260503023051 41 243 0.0 1.0 0.00 0.00 0.00 90 1014.7
20260503022533 40 244 0.0 0.0 0.00 0.00 0.00 89 1014.3
20260503021933 40 244 0.0 0.0 0.00 0.00 0.00 88 1014.4
20260503021333 40 243 0.0 0.0 0.00 0.00 0.00 87 1014.5
20260503020826 41 244 0.0 0.0 0.00 0.00 0.00 86 1014.3
20260503020307 41 243 0.0 0.0 0.00 0.00 0.00 86 1014.5
20260503015746 41 243 0.0 0.0 0.00 0.00 0.00 83 1014.2
20260503015233 41 244 0.0 0.0 0.00 0.00 0.00 80 1014.2
20260503014633 42 244 0.0 0.0 0.00 0.00 0.00 79 1014.2
20260503014033 42 244 0.0 0.0 0.00 0.00 0.00 79 1013.9
20260503013433 43 244 0.0 0.0 0.00 0.00 0.00 78 1014.0
20260503012833 42 244 0.0 0.0 0.00 0.00 0.00 75 1013.7
20260503012233 43 244 0.0 0.0 0.00 0.00 0.00 74 1014.0
20260503011633 43 243 0.0 0.0 0.00 0.00 0.00 71 1013.9
20260503011033 43 244 0.0 0.0 0.00 0.00 0.00 68 1013.8
20260503010433 45 244 0.0 0.0 0.00 0.00 0.00 65 1013.9
20260503005833 45 244 0.0 0.0 0.00 0.00 0.00 65 1013.8
20260503005314 46 243 0.0 0.0 0.00 0.00 0.00 64 1013.8
20260503004754 47 244 0.0 0.0 0.00 0.00 0.00 60 1013.7
20260503004233 47 244 0.0 0.0 0.00 0.00 0.00 58 1013.7
20260503003633 48 243 0.0 0.0 0.00 0.00 0.00 57 1013.7
20260503003122 49 243 0.0 0.0 0.00 0.00 0.00 55 1013.8
20260503002604 49 243 0.0 0.0 0.00 0.00 0.00 54 1013.5
20260503002042 50 243 0.0 0.0 0.00 0.00 0.00 53 1013.6
20260503001534 50 179 0.0 0.0 0.00 0.00 0.00 52 1013.7
20260503000933 51 185 0.0 0.0 0.00 0.00 0.00 48 1013.7
20260503000333 52 168 0.0 0.0 0.00 0.00 0.00 46 1013.7
20260502235733 53 88 0.0 2.0 0.00 0.00 0.00 45 1013.7
20260502235133 54 108 1.0 2.0 0.00 0.00 0.00 43 1013.6
20260502234619 54 12 0.0 0.0 0.00 0.00 0.00 45 1013.7
20260502234059 54 94 1.0 1.0 0.00 0.00 0.00 42 1013.6
20260502233538 55 81 4.0 6.0 0.00 0.00 0.00 42 1013.5
20260502233033 55 279 2.0 2.0 0.00 0.00 0.00 45 1013.6
20260502232433 55 87 0.0 0.0 0.00 0.00 0.00 44 1013.3
20260502231922 55 252 0.0 2.0 0.00 0.00 0.00 42 1013.5
20260502231404 56 246 2.0 3.0 0.00 0.00 0.00 38 1013.6
20260502230833 55 67 1.0 2.0 0.00 0.00 0.00 40 1013.5
20260502230333 55 31 1.0 2.0 0.00 0.00 0.00 40 1013.5
20260502225733 55 35 0.0 0.0 0.00 0.00 0.00 39 1013.6
20260502225227 56 322 4.0 5.0 0.00 0.00 0.00 37 1013.6
20260502224707 57 286 1.0 4.0 0.00 0.00 0.00 39 1013.5
20260502224147 57 223 0.0 0.0 0.00 0.00 0.00 39 1013.7
20260502223633 57 13 1.0 2.0 0.00 0.00 0.00 41 1013.5
20260502223123 57 201 0.0 1.0 0.00 0.00 0.00 40 1013.3
20260502222604 56 242 1.0 2.0 0.00 0.00 0.00 41 1013.5
20260502222043 56 285 3.0 4.0 0.00 0.00 0.00 40 1013.3
20260502221005 56 342 2.0 3.0 0.00 0.00 0.00 40 1013.4
20260502215923 55 276 3.0 4.0 0.00 0.00 0.00 42 1013.5
20260502215404 57 171 2.0 3.0 0.00 0.00 0.00 39 1013.3
20260502214843 57 351 2.0 2.0 0.00 0.00 0.00 38 1013.6
20260502214322 56 256 1.0 2.0 0.00 0.00 0.00 40 1013.5
20260502213804 55 111 1.0 3.0 0.00 0.00 0.00 41 1013.4
20260502213243 55 254 2.0 3.0 0.00 0.00 0.00 41 1013.5
20260502212723 56 37 1.0 3.0 0.00 0.00 0.00 38 1013.5
20260502212205 55 76 2.0 3.0 0.00 0.00 0.00 41 1013.5
20260502211633 55 5 4.0 5.0 0.00 0.00 0.00 40 1013.6
20260502211107 55 123 2.0 2.0 0.00 0.00 0.00 39 1013.5
20260502210547 55 252 3.0 5.0 0.00 0.00 0.00 38 1013.5
20260502210027 55 103 5.0 8.0 0.00 0.00 0.00 38 1013.4
20260502205507 54 50 2.0 3.0 0.00 0.00 0.00 42 1013.7
20260502204947 55 181 1.0 2.0 0.00 0.00 0.00 41 1013.7
20260502204427 54 47 2.0 5.0 0.00 0.00 0.00 43 1013.6
20260502203907 55 20 4.0 4.0 0.00 0.00 0.00 41 1013.6
20260502203347 54 246 1.0 2.0 0.00 0.00 0.00 42 1013.7
20260502202827 54 337 3.0 4.0 0.00 0.00 0.00 39 1013.8
20260502202307 55 260 4.0 6.0 0.00 0.00 0.00 36 1013.7
20260502201747 55 71 2.0 4.0 0.00 0.00 0.00 38 1013.8
20260502201227 54 341 2.0 3.0 0.00 0.00 0.00 43 1013.9
20260502200707 54 281 1.0 2.0 0.00 0.00 0.00 41 1013.9
20260502200147 55 231 0.0 1.0 0.00 0.00 0.00 39 1013.7
20260502195627 56 117 4.0 6.0 0.00 0.00 0.00 40 1014.0
20260502195107 57 264 2.0 3.0 0.00 0.00 0.00 46 1013.9
20260502194547 56 134 0.0 2.0 0.00 0.00 0.00 38 1013.8
20260502194027 55 188 2.0 3.0 0.00 0.00 0.00 41 1013.8
20260502193507 56 91 1.0 2.0 0.00 0.00 0.00 43 1014.0
20260502192947 56 311 3.0 4.0 0.00 0.00 0.00 43 1014.1
20260502192427 57 63 4.0 6.0 0.00 0.00 0.00 42 1013.9
20260502191907 54 179 0.0 1.0 0.00 0.00 0.00 44 1014.1
20260502191347 54 53 1.0 2.0 0.00 0.00 0.00 43 1014.2
20260502190827 55 158 5.0 6.0 0.00 0.00 0.00 45 1014.0
20260502190307 56 245 0.0 2.0 0.00 0.00 0.00 40 1014.3
20260502185747 55 29 2.0 2.0 0.00 0.00 0.00 45 1014.1
20260502185227 54 103 3.0 3.0 0.00 0.00 0.00 44 1014.2
20260502184707 56 31 2.0 3.0 0.00 0.00 0.00 46 1014.1
20260502184147 55 349 4.0 6.0 0.00 0.00 0.00 44 1014.2
20260502183627 55 36 3.0 4.0 0.00 0.00 0.00 41 1014.2
20260502183107 55 94 2.0 3.0 0.00 0.00 0.00 42 1014.2
20260502182547 56 222 2.0 3.0 0.00 0.00 0.00 46 1014.1
20260502182027 55 200 2.0 3.0 0.00 0.00 0.00 52 1014.2
20260502181507 54 264 2.0 4.0 0.00 0.00 0.00 45 1014.3
20260502180947 54 269 1.0 2.0 0.00 0.00 0.00 45 1014.4
20260502180427 55 97 2.0 4.0 0.00 0.00 0.00 42 1014.3
20260502163907 53 78 1.0 2.0 0.00 0.00 0.00 51 1015.1
20260502163347 53 37 2.0 3.0 0.00 0.00 0.00 50 1015.2
20260502162833 54 330 2.0 4.0 0.00 0.00 0.00 49 1015.1
20260502162233 53 37 0.0 1.0 0.00 0.00 0.00 51 1015.2
20260502161633 52 270 2.0 3.0 0.00 0.00 0.00 53 1015.2
20260502161033 52 245 4.0 6.0 0.00 0.00 0.00 52 1015.3
20260502160433 52 118 1.0 2.0 0.00 0.00 0.00 54 1015.4
20260502152333 51 91 0.0 0.0 0.00 0.00 0.00 59 1015.4
20260502151733 51 108 0.0 1.0 0.00 0.00 0.00 54 1015.2
20260502151233 51 141 2.0 4.0 0.00 0.00 0.00 55 1015.3
20260502150633 51 14 1.0 2.0 0.00 0.00 0.00 53 1015.2
20260502130633 45 114 2.0 4.0 0.00 0.00 0.00 72 1014.9
20260502123633 43 92 2.0 3.0 0.00 0.00 0.00 80 1014.8
20260502123033 43 67 0.0 2.0 0.00 0.00 0.00 84 1014.7
20260502122433 42 107 1.0 2.0 0.00 0.00 0.00 84 1014.7
20260502121233 41 34 2.0 2.0 0.00 0.00 0.00 87 1014.8
20260502120633 41 115 0.0 0.0 0.00 0.00 0.00 88 1014.7
20260502115433 40 88 1.0 2.0 0.00 0.00 0.00 91 1014.1
20260502114833 40 101 0.0 0.0 0.00 0.00 0.00 92 1014.2
20260502114233 40 108 1.0 2.0 0.00 0.00 0.00 93 1014.0
20260502113633 40 185 0.0 0.0 0.00 0.00 0.00 94 1014.2
20260502113033 39 223 0.0 0.0 0.00 0.00 0.00 93 1013.8
20260502112433 39 223 0.0 0.0 0.00 0.00 0.00 93 1014.0
20260502111833 39 223 0.0 0.0 0.00 0.00 0.00 92 1014.3
20260502111233 39 224 0.0 0.0 0.00 0.00 0.00 92 1013.7
20260502110633 39 223 0.0 0.0 0.00 0.00 0.00 92 1014.1
20260502105433 39 50 0.0 1.0 0.00 0.00 0.00 92 1013.7
20260502104916 40 35 1.0 2.0 0.00 0.00 0.00 92 1013.4
20260502104356 40 103 0.0 2.0 0.00 0.00 0.00 92 1013.2
20260502103836 41 56 0.0 0.0 0.00 0.00 0.00 92 1013.5
20260502103333 41 57 0.0 0.0 0.00 0.00 0.00 92 1013.7
20260502102733 41 81 0.0 1.0 0.00 0.00 0.00 92 1013.5
20260502101533 41 69 0.0 0.0 0.00 0.00 0.00 92 1013.7
20260502100933 41 95 0.0 2.0 0.00 0.00 0.00 92 1013.7
20260502100333 41 49 0.0 1.0 0.00 0.00 0.00 92 1013.7
20260502091133 43 75 0.0 1.0 0.00 0.00 0.00 89 1013.5
20260502090633 43 75 0.0 0.0 0.00 0.00 0.00 89 1013.5
20260502071348 43 75 0.0 0.0 0.00 0.07 0.00 99 1013.2
20260502070308 42 75 0.0 0.0 0.00 0.07 0.00 99 1013.0
20260502065748 42 75 0.0 0.0 0.00 0.07 0.00 99 1013.2
20260502065228 42 75 0.0 0.0 0.00 0.07 0.00 99 1013.2
20260502064708 42 75 0.0 0.0 0.00 0.07 0.00 99 1013.1
20260502064148 42 75 0.0 0.0 0.00 0.07 0.00 99 1013.2
20260502063628 43 75 0.0 0.0 0.00 0.07 0.00 99 1013.0
20260502063108 43 75 0.0 0.0 0.00 0.07 0.00 99 1013.2
20260502062548 43 75 0.0 0.0 0.00 0.07 0.00 99 1013.2
20260502062028 42 75 0.0 0.0 0.00 0.07 0.00 99 1013.2
20260502061508 43 75 0.0 0.0 0.00 0.07 0.00 99 1013.1
20260502060948 43 75 0.0 0.0 0.00 0.07 0.00 99 1013.3
20260502060433 43 75 0.0 0.0 0.00 0.07 0.00 99 1013.4
20260502055833 43 75 0.0 0.0 0.00 0.07 0.00 99 1013.1